Weather History for KISQ - November, 2013

Change the Weather History Date:

Monday, November 25, 2013

  Actual Average (WUND) Record (WUND)
Temperature  
Mean Temperature 30 °F -  
Max Temperature 34 °F - - (-1)
Min Temperature 26 °F - - (-1)
Degree Days  
Heating Degree Days 35    
Moisture  
Dew Point 21 °F    
Average Humidity 68    
Maximum Humidity 90    
Minimum Humidity 57    
Precipitation  
Precipitation 0.00 in - - ()
Sea Level Pressure  
Sea Level Pressure 29.84 in    
Wind  
Wind Speed 13 mph (SW)    
Max Wind Speed 21 mph    
Max Gust Speed 34 mph    
Visibility 9 miles    
Events Snow    
Averages and records for this station are not official NWS values.
T = Trace of Precipitation, MM = Missing Value Source: NWS Daily Summary

Daily Weather History Graph

Daily Weather History Graph

Search for Another Location

Airport or City:

Trip Planner

Search our weather history database for the weather conditions in past years. The results will help you decide how hot, cold, wet, or windy it might be!

Date:

Astronomy

Nov. 25, 2013 Rise Set
Actual Time 7:58 AM EST 5:04 PM EST
Civil Twilight 7:25 AM EST 5:37 PM EST
Nautical Twilight 6:48 AM EST 6:14 PM EST
Astronomical Twilight 6:12 AM EST 6:50 PM EST
Moon No Moon Rise 1:02 PM EST (11/25)
Length of Visible Light 10h 12m
Length of Day
9h 05m
Waning Gibbous, 51% of the Moon is Illuminated
Nov 25
Waning Gibbous
Nov 25
Last Quarter
Dec 2
New
Dec 9
First Quarter
Dec 17
Full

Hourly Weather History & Observations

Time (EST) Temp. Windchill Dew Point Humidity Pressure Visibility Wind Dir Wind Speed Gust Speed Precip Events Conditions
12:15 AM 27.5 °F 15.9 °F 17.2 °F 65% 30.03 in 10.0 mi SW 15.0 mph 23.0 mph N/A   Mostly Cloudy
12:34 AM 28.0 °F 17.5 °F 16.3 °F 62% 30.02 in 10.0 mi SW 12.7 mph 24.2 mph N/A   Scattered Clouds
12:55 AM 28.4 °F 19.7 °F 16.3 °F 61% 30.01 in 10.0 mi SW 9.2 mph 25.3 mph N/A   Clear
1:14 AM 28.2 °F 17.7 °F 14.7 °F 57% 30.00 in 10.0 mi SW 12.7 mph 23.0 mph N/A   Clear
1:35 AM 28.0 °F 17.0 °F 14.4 °F 57% 29.98 in 10.0 mi SW 13.8 mph 26.5 mph N/A   Mostly Cloudy
1:55 AM 28.0 °F 16.1 °F 14.5 °F 57% 29.97 in 10.0 mi SW 16.1 mph 21.9 mph N/A   Mostly Cloudy
2:14 AM 28.2 °F 17.2 °F 14.9 °F 57% 29.96 in 10.0 mi SW 13.8 mph 23.0 mph N/A   Mostly Cloudy
2:35 AM 28.4 °F 15.8 °F 15.6 °F 59% 29.95 in 10.0 mi SW 18.4 mph 26.5 mph N/A   Mostly Cloudy
2:55 AM 28.4 °F 16.2 °F 15.4 °F 58% 29.94 in 10.0 mi SW 17.3 mph 24.2 mph N/A   Overcast
3:14 AM 28.9 °F 18.2 °F 15.8 °F 58% 29.93 in 10.0 mi SW 13.8 mph 24.2 mph N/A   Overcast
3:35 AM 28.9 °F 16.9 °F 16.0 °F 58% 29.92 in 10.0 mi SW 17.3 mph 25.3 mph N/A   Overcast
3:55 AM 29.1 °F 16.4 °F 16.2 °F 58% 29.90 in 10.0 mi SW 19.6 mph 27.6 mph N/A   Overcast
4:14 AM 29.3 °F 18.6 °F 16.7 °F 59% 29.88 in 10.0 mi SW 13.8 mph 25.3 mph N/A   Overcast
4:35 AM 29.3 °F 19.6 °F 16.7 °F 59% 29.88 in 7.0 mi SW 11.5 mph 31.1 mph N/A Snow Light Snow
4:54 AM 29.1 °F 18.9 °F 18.3 °F 64% 29.86 in 4.0 mi SW 12.7 mph 27.6 mph N/A Snow Light Snow
5:15 AM 30.0 °F 19.1 °F 17.4 °F 59% 29.86 in 10.0 mi WSW 15.0 mph 26.5 mph N/A   Overcast
5:35 AM 30.0 °F 19.1 °F 18.1 °F 61% 29.85 in 10.0 mi SW 15.0 mph 27.6 mph N/A   Overcast
5:54 AM 30.0 °F 20.5 °F 18.1 °F 61% 29.85 in 10.0 mi SW 11.5 mph 29.9 mph N/A Snow Light Snow
6:15 AM 30.2 °F 20.8 °F 18.0 °F 60% 29.84 in 10.0 mi WSW 11.5 mph 25.3 mph N/A Snow Light Snow
6:35 AM 30.2 °F 19.3 °F 18.0 °F 60% 29.83 in 10.0 mi SW 15.0 mph 24.2 mph N/A   Overcast
6:54 AM 29.3 °F 17.3 °F 18.0 °F 63% 29.82 in 10.0 mi SW 17.3 mph 31.1 mph N/A Snow Light Snow
7:15 AM 28.4 °F 15.4 °F 21.0 °F 74% 29.82 in 4.0 mi SW 19.6 mph 34.5 mph N/A Snow Light Snow
7:35 AM 26.4 °F 15.0 °F 23.9 °F 90% 29.82 in 1.0 mi SW 13.8 mph 26.5 mph N/A Snow Snow
7:54 AM 26.2 °F 12.2 °F 23.5 °F 90% 29.80 in 1.2 mi SW 20.7 mph 31.1 mph N/A Snow Light Snow
8:15 AM 26.4 °F 14.0 °F 23.9 °F 90% 29.82 in 1.2 mi SW 16.1 mph 33.4 mph N/A Snow Light Snow
8:34 AM 26.6 °F 15.7 °F 22.6 °F 85% 29.82 in 5.0 mi SW 12.7 mph 24.2 mph N/A Snow Light Snow
8:55 AM 27.5 °F 17.4 °F 21.9 °F 80% 29.82 in 10.0 mi SW 11.5 mph 25.3 mph N/A   Overcast
9:14 AM 28.6 °F 18.2 °F 21.0 °F 73% 29.82 in 10.0 mi SW 12.7 mph 24.2 mph N/A   Overcast
9:35 AM 29.5 °F 19.9 °F 20.1 °F 68% 29.82 in 10.0 mi SW 11.5 mph 21.9 mph N/A   Overcast
9:55 AM 30.0 °F 19.1 °F 18.7 °F 63% 29.81 in 10.0 mi SW 15.0 mph 26.5 mph N/A   Overcast
10:14 AM 30.2 °F 18.9 °F 18.0 °F 60% 29.81 in 10.0 mi SW 16.1 mph 27.6 mph N/A   Overcast
10:35 AM 30.6 °F 23.1 °F 18.3 °F 60% 29.81 in 10.0 mi WSW 8.1 mph 20.7 mph N/A   Overcast
10:55 AM 30.6 °F 20.7 °F 18.5 °F 61% 29.80 in 10.0 mi SW 12.7 mph 19.6 mph N/A   Overcast
11:14 AM 30.7 °F 21.4 °F 18.9 °F 61% 29.79 in 10.0 mi SW 11.5 mph 25.3 mph N/A   Overcast
11:35 AM 31.1 °F 22.4 °F 19.6 °F 62% 29.78 in 10.0 mi WSW 10.4 mph 19.6 mph N/A   Overcast
11:55 AM 31.1 °F 23.1 °F 20.3 °F 64% 29.78 in 10.0 mi WSW 9.2 mph 21.9 mph N/A   Overcast
12:15 PM 31.6 °F 22.1 °F 20.8 °F 64% 29.78 in 10.0 mi WSW 12.7 mph 24.2 mph N/A   Overcast
12:35 PM 31.6 °F 21.6 °F 21.2 °F 65% 29.78 in 10.0 mi SW 13.8 mph 23.0 mph N/A   Overcast
12:54 PM 31.8 °F 22.8 °F 21.6 °F 66% 29.78 in 10.0 mi WSW 11.5 mph 23.0 mph N/A   Overcast
1:15 PM 32.0 °F 22.1 °F 21.2 °F 64% 29.78 in 10.0 mi SW 13.8 mph 20.7 mph N/A   Overcast
1:35 PM 32.0 °F 23.0 °F 21.2 °F 64% 29.77 in 10.0 mi WSW 11.5 mph 21.9 mph N/A   Overcast
1:54 PM 32.0 °F 23.0 °F 21.6 °F 65% 29.77 in 10.0 mi WSW 11.5 mph 19.6 mph N/A   Overcast
2:15 PM 32.2 °F 25.0 °F 21.9 °F 66% 29.77 in 10.0 mi WSW 8.1 mph 20.7 mph N/A   Overcast
2:35 PM 32.2 °F 24.4 °F 22.3 °F 67% 29.77 in 10.0 mi WSW 9.2 mph 20.7 mph N/A   Overcast
2:54 PM 32.4 °F 23.5 °F 22.3 °F 66% 29.77 in 10.0 mi SW 11.5 mph 19.6 mph N/A   Overcast
3:15 PM 32.5 °F 25.5 °F 22.6 °F 67% 29.78 in 10.0 mi WSW 8.1 mph 17.3 mph N/A   Overcast
3:34 PM 32.9 °F 25.9 °F 23.0 °F 67% 29.79 in 10.0 mi WSW 8.1 mph - N/A   Overcast
3:55 PM 32.7 °F 25.0 °F 23.0 °F 67% 29.79 in 10.0 mi WSW 9.2 mph - N/A   Overcast
4:15 PM 32.5 °F 25.5 °F 23.5 °F 69% 29.80 in 10.0 mi WSW 8.1 mph - N/A   Overcast
4:34 PM 32.7 °F 26.4 °F 23.7 °F 69% 29.80 in 10.0 mi WSW 6.9 mph 16.1 mph N/A   Overcast
4:55 PM 32.9 °F 26.7 °F 23.9 °F 69% 29.81 in 10.0 mi WSW 6.9 mph - N/A   Overcast
5:15 PM 33.1 °F 27.7 °F 24.4 °F 71% 29.81 in 10.0 mi SW 5.8 mph 17.3 mph N/A   Overcast
5:34 PM 32.9 °F 25.3 °F 24.8 °F 72% 29.81 in 10.0 mi WSW 9.2 mph - N/A   Overcast
5:55 PM 33.1 °F 26.1 °F 24.8 °F 72% 29.82 in 10.0 mi WSW 8.1 mph - N/A   Overcast
6:14 PM 33.3 °F 26.4 °F 25.5 °F 73% 29.82 in 10.0 mi WSW 8.1 mph - N/A   Overcast
6:35 PM 33.6 °F 27.5 °F 25.7 °F 73% 29.83 in 10.0 mi WSW 6.9 mph - N/A   Overcast
6:55 PM 33.8 °F 29.6 °F 25.7 °F 72% 29.83 in 10.0 mi SW 4.6 mph - N/A   Overcast
7:14 PM 33.8 °F 27.0 °F 26.2 °F 74% 29.83 in 10.0 mi WSW 8.1 mph 16.1 mph N/A   Overcast
7:35 PM 34.0 °F 27.2 °F 26.2 °F 73% 29.83 in 10.0 mi WSW 8.1 mph 19.6 mph N/A   Overcast
7:55 PM 34.2 °F 27.5 °F 26.2 °F 73% 29.84 in 10.0 mi WSW 8.1 mph 17.3 mph N/A   Overcast
8:15 PM 34.0 °F 26.6 °F 26.6 °F 74% 29.84 in 10.0 mi WSW 9.2 mph 18.4 mph N/A   Overcast
8:35 PM 34.0 °F 26.0 °F 26.8 °F 75% 29.84 in 10.0 mi WSW 10.4 mph - N/A   Overcast
8:54 PM 33.8 °F 28.6 °F 26.6 °F 75% 29.84 in 10.0 mi WSW 5.8 mph - N/A   Overcast
9:15 PM 33.8 °F 27.7 °F 26.6 °F 75% 29.85 in 10.0 mi WSW 6.9 mph 18.4 mph N/A   Overcast
9:35 PM 33.8 °F 25.8 °F 26.8 °F 75% 29.85 in 10.0 mi WSW 10.4 mph - N/A   Overcast
9:54 PM 33.8 °F 27.0 °F 27.0 °F 76% 29.84 in 10.0 mi WSW 8.1 mph 18.4 mph N/A   Overcast
10:15 PM 33.8 °F 27.0 °F 27.0 °F 76% 29.84 in 10.0 mi WSW 8.1 mph - N/A   Overcast
10:35 PM 33.8 °F 27.0 °F 27.0 °F 76% 29.84 in 10.0 mi WSW 8.1 mph - N/A   Overcast
10:54 PM 33.8 °F 27.0 °F 26.8 °F 75% 29.83 in 10.0 mi WSW 8.1 mph 16.1 mph N/A   Overcast
11:15 PM 33.8 °F 26.4 °F 26.6 °F 75% 29.83 in 10.0 mi West 9.2 mph 16.1 mph N/A   Overcast
11:35 PM 33.6 °F 26.2 °F 26.6 °F 75% 29.83 in 10.0 mi West 9.2 mph - N/A   Overcast
11:55 PM 33.1 °F 25.5 °F 26.4 °F 77% 29.83 in 10.0 mi West 9.2 mph - N/A   Overcast